Terminal Aerodrome Forecast
Issued by NWS Omaha/Valley, NE

Home | Current Version | Previous Version | Text Only | Print | Product List | Glossary On
Versions: 1 2 3 4 5 6 7 8 9 10 11 12 13 14 15 16 17 18 19 20 21 22 23 24 25 26 27 28 29 30 31 32 33 34 35 36 37 38 39 40 41 42 43 44
000
FTUS43 KOAX 271331 AAA
TAFOMA
TAF AMD
KOMA 271331Z 2714/2812 01007KT P6SM SCT015 BKN070
     FM271600 06006KT P6SM OVC050
     FM271900 12010KT P6SM BKN070
     FM272300 14013KT P6SM SCT070 BKN120
     FM280600 15012KT P6SM SCT120=

USA.gov is the U.S. government's official web portal to all federal, state and local government web resources and services.